www.pogodaiklimat.ru

Погода и климат >> Архив погоды >> Украина >> Нижние Серогозы


ПОГОДА в Нижних Серогозах

  • Прогноз погоды в Нижних Серогозах
  • Монитор погоды в Нижних Серогозах

АРХИВ ПОГОДЫ в Нижних Серогозах

Время (UTC), дата Ветер
(напр.,м/с)
 
Видим.   Явления Облачность Т
(С)
Тd
(С)
f
(%)
Тe
(С)
Тes
(С)
Комфортность P
(гПа)
Po
(гПа)
Тmin
(С)
Tmax
(С)
R
(мм)
R24
(мм)
S
(см)
15 18.06 СВ 6 10 км 1/1 1000 м
[Cu hum]
+31.7 +11.3 29 +32 +33 жарко 1012.2 1006.2
18 18.06 штиль 0 10 км 3/0
[Ci]
+26.4 +14.8 49 +29 +29 жарко 1012.4 1006.3 +32.3
21 18.06 штиль 0 4000 м 1/0
[Ac cast]
+22.3 +13.3 57 +25 +25 комфорт 1013.5 1007.3
00 19.06 С 2 4000 м ясно +19.0 +14.1 73 +21 +21 комфорт 1012.9 1006.6
03 19.06 С 2 10 км ясно +20.1 +17.3 84 +24 +24 комфорт 1012.6 1006.4
06 19.06 СВ 2 10 км ясно +28.7 +17.7 51 +33 +42 очень
душно
1012.7 1006.6 +18.6
12 19.06 С 2 10 км 4/4 1000 м
[Cu med, cong]
+34.1 +15.2 32 +36 +45 душно 1011.0 1005.1
18 19.06 ЮВ 2 10 км {гроза} 6/3 1000 м
[Sc diur, vesp Ci]
+28.0 +16.8 51 +32 +32 душно 1011.2 1005.1 +34.8
21 19.06 С 2 4000 м 4/0
[Ci fib]
+22.9 +16.1 66 +27 +27 душно 1011.5 1005.3
00 20.06 С 2 4000 м 3/0
[Ci fib]
+19.5 +15.3 77 +22 +22 комфорт 1011.2 1005.0
03 20.06 СВ 2 10 км 1/0
[Ci fib]
+20.6 +16.6 78 +25 +25 комфорт 1011.8 1005.6
06 20.06 В 4 10 км 1/0
[Ci fib]
+29.1 +15.6 44 +32 +38 душно 1011.5 1005.5 +19.1
09 20.06 В 6 10 км 4/4 1000 м
[Cu med, cong]
+33.3 +14.0 31 +34 +39 очень
жарко
1011.2 1005.2
12 20.06 В 4 10 км 8/8 1000 м
[Cu med, cong]
+32.5 +13.3 31 +33 +35 жарко 1010.4 1004.4
15 20.06 СВ 6 10 км 4/4 1000 м
[Cu med, cong]
+33.5 +11.4 26 +33 +34 жарко 1009.9 1004.0
18 20.06 штиль 0 10 км 4/0
[Ac trans Ci fib]
+27.6 +14.3 44 +30 +30 жарко 1011.3 1005.2 +35.2
21 20.06 С 2 4000 м 3/0
[Ci fib]
+21.6 +12.0 54 +24 +24 комфорт 1012.2 1006.0
00 21.06 С 2 4000 м 4/0
[Ac trans]
+20.9 +12.0 57 +24 +24 комфорт 1012.6 1006.4
03 21.06 С 2 10 км 3/0
[Ac cast]
+21.0 +11.0 53 +24 +24 комфорт 1013.4 1007.2
06 21.06 СВ 6 10 км ясно +29.3 +12.0 34 +30 +34 жарко 1013.3 1007.2 +20.1
09 21.06 С 6 10 км 3/1 1000 м
[Cu hum Ac trans Ci fib]
+34.2 +7.9 20 +33 +38 жарко 1012.7 1006.7
12 21.06 С 4 10 км 8/8 1000 м
[Cu med, cong]
+35.1 +9.9 22 +34 +36 очень
жарко
1011.9 1006.0
15 21.06 В 4 10 км 3/3 1000 м
[Sc diur, vesp]
+34.6 +9.8 22 +34 +35 очень
жарко
1011.6 1005.7
18 21.06 В 2 10 км 3/3 1000 м
[Sc Ac cast]
+28.9 +13.7 39 +31 +31 жарко 1012.5 1006.4 +36.1
21 21.06 штиль 0 4000 м ясно +21.2 +12.8 59 +23 +23 комфорт 1013.5 1007.3
00 22.06 С 2 4000 м 1/0
[Ci fib]
+20.9 +12.8 60 +24 +24 комфорт 1013.3 1007.1
03 22.06 СВ 2 10 км 3/0
[Ac cast Ci fib]
+20.0 +12.5 62 +22 +23 комфорт 1013.9 1007.7
06 22.06 СВ 2 10 км 8/0
[Ac cast Cc]
+30.0 +13.4 36 +31 +35 жарко 1014.0 1008.0 +19.5
09 22.06 СВ 4 10 км 9/0
[Ac cast Ci sp]
+33.4 +10.4 24 +33 +41 жарко 1013.9 1007.9
12 22.06 СВ 8 10 км 10/4 1000 м
[Cu med, cong Ci sp]
+35.1 +8.7 20 +34 +35 очень
жарко
1013.3 1007.4
15 22.06 Ю 2 10 км {ливн. осадки} 10/6 600 м
[Cb calv Ci sp]
+29.6 +17.1 47 +33 +35 душно 1014.1 1008.1
18 22.06 ЮВ 4 10 км {ливн. осадки} 10/6 600 м
[Cb cap Ac cast Ci sp]
+26.6 +15.4 50 +29 +29 жарко 1014.8 1008.7 +36.2 0.0
21 22.06 С 4 4000 м {ливн. осадки} 10/0
[Ac und]
+22.5 +15.7 65 +26 +26 жарко 1013.9 1007.7
00 23.06 СЗ 4 4000 м {ливн. осадки} 10/0
[Ac As]
+22.4 +15.8 66 +26 +26 жарко 1013.5 1007.3
06 23.06 С 6 10 км 10/0
[Ac As]
+27.2 +13.3 42 +29 +30 жарко 1013.1 1007.0 +22.1 1
12 23.06 С 4 10 км {гроза, ливн. осадки} 6/3 600 м
[Cb calv Ac cuf Ci sp]
+29.4 +14.8 41 +32 +37 душно 1012.6 1006.6
18 23.06 В 4 10 км {гроза, ливн. осадки} 10/5 600 м
[Cb calv Ac cast Cc]
+23.7 +16.9 66 +27 +27 жарко 1013.0 1006.8 +32.1 7
00 24.06 СВ 4 4000 м {гроза, ливн. осадки} 8/0
[Ac trans Ci fib]
+20.9 +18.2 85 +25 +25 комфорт 1012.7 1006.5
06 24.06 С 6 10 км 4/0
[Ac cast Cc]
+27.0 +16.3 52 +30 +33 душно 1013.2 1007.1 +20.1 1
12 24.06 С 8 10 км гроза без осадков 8/4 600 м
[Cb calv Ci sp]
+30.2 +14.4 38 +32 +34 жарко 1012.8 1006.8
18 24.06 штиль 0 10 км {гроза} 9/3 600 м
[Cb calv Ac cast Ci fib]
+24.9 +18.8 69 +30 +30 душно 1014.0 1007.9 +31.8
00 25.06 СВ 2 4000 м в посл. час ливневой дождь 10/3 600 м
[Cb calv Ac As Ci fib]
+21.1 +18.5 85 +25 +25 комфорт 1015.7 1009.5
06 25.06 СВ 4 10 км {ливн. осадки} 6/0
[Ac cast Cc]
+29.1 +15.2 43 +32 +36 душно 1016.6 1010.5 +20.3 0.0

 

Местоположение метеостанции Нижние Серогозы (Херсонская область, Украина): широта 46.85 долгота 34.40 высота над уровнем моря 53 м.

В архиве по умолчанию представлена погода в Нижних Серогозах за последнюю неделю. Архивные данные за месяц целиком и за предыдущие месяцы, начиная с января 2011 года, Вы можете получить, выбрав интересующий диапазон дат из раскрывающегося списка и нажав кнопку "Ввод!".


*Определитесь, кто Вы:
робот инопланетянин человек

Внимание! Время в таблицах - всемирное. Для получения местного времени необходимо прибавить поправку, которая равна 2 ч.

Смотрите также архив погоды в соседних городах и на ближайших метеорологических станциях:

Погода в Аскании-Нове (Херсонская область, Украина) (60 км)
Погода в Мелитополе (Запорожская область, Украина) (74 км)
Погода в Новой Каховке (Херсонская область, Украина) (79 км)
Погода в Никополе (Днепропетровская область, Украина) (81 км)
Погода в Геническе (Херсонская область, Украина) (82 км)
Погода в Пришибе (Запорожская область, Украина) (85 км)
Погода в Великой Александровке (Херсонская область, Украина) (100 км)
Погода в Ботиево (Запорожская область, Украина) (112 км)
Погода в Ишуни (Крым, Россия) (113 км)
Погода в Хорлах (Херсонская область, Украина) (115 км)

Пояснения к столбцам:

Ветер - указаны скорость ветра в м/с - средняя за 10 мин, порывы в срок и между сроками (в фигурных скобках) и направление, откуда дует ветер: С - северный, СВ - северо-восточный, В - восточный, ЮВ - юго-восточный, Ю - южный, ЮЗ - юго-западный, З - западный, СЗ - северо-западный.
Видимость - горизонтальная дальность видимости в метрах или километрах. При видимости от 1 до 10 км при отсутствии осадков обычно наблюдается дымка, при ухудшении видимости до 1 км и менее - туман. В сухую погоду видимость может ухудшаться дымом, пылью или мглою.
Явления - указаны атмосферные явления, наблюдавшиеся в срок или в последний час перед сроком; фигурными скобками обозначены явления, наблюдавшиеся между сроками (за 1-3 часа до срока); квадратными скобками обозначены град или гололедные отложения с указанием их диаметра в мм.
Облачность - указаны через наклонную черту общая и нижняя облачность в баллах и высота нижней границы облаков в метрах; квадратными скобками обозначены формы облаков: Ci - перистые, Cs - перисто-слоистые, Cc - перисто-кучевые, Ac - высококучевые, As - высокослоистые, Sc - слоисто-кучевые, Ns - слоисто-дождевые, Cu - кучевые, Cb - кучево-дождевые. Подробнее классификацию облаков см. в Атласе облаков (PDF).
T - Температура воздуха - температура, измеренная на высоте 2 м над землей.
Td - Температура точки росы - температура, при понижении до которой содержащийся в воздухе водяной пар достигнет насыщения.
f - Относительная влажность воздуха - влажноcть воздуха, измеренная на высоте 2 м над землей.
Te - Эффективная температура - температура, которую ощущает одетый по сезону человек в тени. Характеристика душности погоды. При расчете учитывается влияние влажности воздуха и скорости ветра на теплоощущения человека.
Tes - Эффективная температура на солнце - температура, которую ощущает человек, с поправкой на солнечный нагрев. Характеристика знойности погоды. Зависит от высоты солнца над горизонтом, облачности и скорости ветра. Ночью, в пасмурную погоду, а также при ветре 12 м/с и более поправка равна нулю.
P - Атмосферное давление - приведенное к уровню моря атмосферное давление.
Po - Атмосферное давление - измеренное на уровне метеостанции атмосферное давление.
Tmin - Минимальная температура - минимум температуры воздуха на высоте 2 м над землей.
Tmax - Максимальная температура - максимум температуры воздуха на высоте 2 м над землей.
R - Количество осадков - Количество выпавших осадков за период времени, мм. При наведении курсора мыши на число - период времени, за который выпало указанное количество осадков.
R24 - Количество осадков - Количество выпавших осадков за 24 часа, мм.
S - Снежный покров - Высота снежного покрова, см. При наведении курсора мыши на число - состояние снежного покрова и степень покрытия местности в баллах.